Overview Statistics Trail Chart Weather Telemetry Raw packets
 

This is the latest recevied weather packets stored in our database for station/object DH2PG-6. If no packets are shown the sender has not sent any weather packets the latest 10 day(s).

<< 27 28 29 30 31 32 33 >>
Time Temp. Humidity Pressure Rain* Wind** Luminosity Snow
1788437953 21.11° C 63% 1018 hPa 0 mm - - -
1788437652 21.11° C 63% 1018 hPa 0 mm - - -
1788437052 21.67° C 63% 1017.7 hPa 0 mm - - -
1788436451 21.11° C 63% 1017.8 hPa 0 mm - - -
1788436151 21.11° C 63% 1017.8 hPa 0 mm - - -
1788435851 20.56° C 63% 1017.8 hPa 0 mm - - -
1788435551 21.11° C 63% 1017.8 hPa 0 mm - - -
1788435250 20.56° C 64% 1017.8 hPa 0 mm - - -
1788434950 20.56° C 64% 1017.8 hPa 0 mm - - -
1788434650 20.56° C 64% 1017.9 hPa 0 mm - - -
1788434349 21.11° C 63% 1017.8 hPa 0 mm - - -
1788434049 21.11° C 63% 1017.8 hPa 0 mm - - -
1788433749 21.11° C 64% 1017.8 hPa 0 mm - - -
1788433448 21.11° C 63% 1017.7 hPa 0 mm - - -
1788433148 21.11° C 62% 1017.8 hPa 0 mm - - -
1788432848 21.11° C 62% 1017.8 hPa 0 mm - - -
1788432548 21.11° C 62% 1017.7 hPa 0 mm - - -
1788432247 20.56° C 62% 1017.6 hPa 0 mm - - -
1788431947 21.11° C 61% 1017.5 hPa 0 mm - - -
1788431346 21.67° C 60% 1017.5 hPa 0 mm - - -
1788431046 21.67° C 59% 1017.5 hPa 0 mm - - -
1788430746 21.67° C 59% 1017.4 hPa 0 mm - - -
1788430446 22.22° C 60% 1017.5 hPa 0 mm - - -
1788430145 22.22° C 60% 1017.4 hPa 0 mm - - -
1788429845 21.67° C 61% 1017.4 hPa 0 mm - - -

* Rain latest hour (hover to see other rain measurements)
** Current wind speed in m/s (hover to see current wind gust speed)